Tracking 29892 objects as of 21-Nov-2024
HD Live streaming from Space Station
objects crossing your sky now

STARLINK-5548

Track STARLINK-5548 now!
10-day predictions
STARLINK-5548 is classified as:


NORAD ID: 56334
Int'l Code: 2023-058T
Perigee: 568.9 km
Apogee: 571.4 km
Inclination: 97.7 °
Period: 95.9 minutes
Semi major axis: 6941 km
RCS: Unknown
Launch date: April 27, 2023
Source: United States (US)
Launch site: AIR FORCE WESTERN TEST RANGE (AFWTR)
Your satellite tracking list
Your tracking list is empty




NASA's NSSDC Master Catalog

Two Line Element Set (TLE):
1 56334U 23058T   24324.95666479  .00001338  00000-0  10875-3 0  9995
2 56334  97.6585 323.5417 0001774  85.7146 274.4281 15.01259358 86414
Source of the keplerian elements: AFSPC